Location: Bismarck
(46.7731°N, 100.8200°W)
Time: 06:09:40
(UTC-05:00)

ISS - Visible Passes

Search period start: 30 May 2017 00:00
Search period end: 09 June 2017 00:00
Orbit: 402 x 408 km, 51.6° (Epoch: 30 May)

Date Brightness Start Highest point End Pass type
(mag) Time Alt. Az. Time Alt. Az. Time Alt. Az.
30 May -2.6 00:43:23 10° WNW 00:46:33 41° NNE 00:48:13 22° ENE visible
30 May -1.6 02:19:54 10° WNW 02:20:51 17° WNW 02:20:51 17° WNW visible
30 May -2.4 22:14:14 10° W 22:17:23 41° NNW 22:20:34 10° ENE visible
30 May -2.2 23:51:17 10° WNW 23:54:21 35° N 23:57:26 10° ENE visible
31 May -3.0 01:27:48 10° WNW 01:30:13 45° WNW 01:30:13 45° WNW visible
31 May -2.1 22:59:05 10° WNW 23:02:08 33° N 23:05:11 10° ENE visible
01 Jun -3.4 00:35:44 10° WNW 00:39:01 61° NNE 00:39:39 48° ENE visible
01 Jun -2.1 22:06:50 10° WNW 22:09:54 34° N 22:12:58 10° ENE visible
01 Jun -2.8 23:43:38 10° WNW 23:46:51 45° NNE 23:49:08 17° E visible
02 Jun -2.1 01:20:12 10° WNW 01:21:46 24° W 01:21:46 24° W visible
02 Jun -2.4 22:51:31 10° WNW 22:54:38 37° N 22:57:44 10° E visible
03 Jun -4.0 00:28:02 10° WNW 00:31:17 76° SW 00:31:17 76° SW visible
03 Jun -3.6 23:35:54 10° WNW 23:39:12 71° NNE 23:40:51 27° ESE visible
04 Jun -1.3 01:12:48 10° W 01:13:29 14° W 01:13:29 14° W visible
04 Jun -3.0 22:43:47 10° WNW 22:47:01 50° NNE 22:50:14 10° E visible
05 Jun -2.9 00:20:23 10° WNW 00:23:04 35° SW 00:23:04 35° SW visible
05 Jun -3.8 23:28:08 10° WNW 23:31:25 63° SSW 23:32:40 33° SE visible
06 Jun -3.8 22:35:58 10° WNW 22:39:17 82° NNE 22:42:18 12° ESE visible
07 Jun -1.8 00:13:04 10° W 00:14:57 18° SW 00:14:57 18° SW visible
07 Jun -2.7 23:20:29 10° WNW 23:23:27 31° SW 23:24:37 24° S visible
08 Jun -3.4 22:28:09 10° WNW 22:31:23 52° SSW 22:34:19 12° SE visible
